Theta_e
304 304 304 304 304 304 305 306 307 308 308 308 308 308 308 308 307 307 306 306 306 306 306 307 307 307 307 306 306 306 305 307 310 312 311 311 312 311 311 310 308 306 305 307 312 313 312 313 314 315 315 315 316 317 318 318 317 316 316 315 313 314 315 316 319 319 318 319 319 318 319 318 318 322 326 327 326 326 324 323 324 325 332 339 344 349 353 353
304 304 304 303 303 304 304 304 305 307 307 307 308 308 308 308 308 307 307 307 306 306 306 307 307 307 306 306 306 304 304 308 311 311 311 311 310 309 309 308 307 306 306 309 312 313 312 313 313 314 314 314 316 316 317 319 317 316 316 314 314 316 316 318 319 319 319 319 319 319 318 318 319 323 331 333 330 327 324 325 327 326 338 348 349 351 352 353
304 304 304 304 304 304 304 304 304 305 306 306 307 307 308 308 308 308 307 307 306 306 306 307 307 307 306 306 305 303 306 310 311 311 313 314 311 309 307 306 306 305 306 311 312 312 312 313 314 313 313 314 315 315 316 318 317 316 316 315 315 317 317 319 319 318 318 318 318 319 318 318 319 323 331 333 332 331 326 325 328 329 340 348 348 350 353 353
304 304 304 304 304 304 304 304 304 304 304 305 306 307 307 308 308 308 308 307 306 306 306 307 307 306 306 305 304 303 308 311 311 313 313 313 312 311 308 306 306 304 307 311 311 312 312 313 315 313 312 313 314 315 316 317 317 316 315 315 316 317 317 318 318 318 318 317 317 318 318 318 318 321 327 330 331 332 329 325 328 333 339 344 348 351 353 353
303 304 304 304 304 304 304 304 305 304 304 304 304 305 306 307 308 308 308 307 307 306 306 307 307 306 305 305 303 305 310 310 311 313 309 309 310 309 309 308 306 306 308 310 311 312 311 312 313 313 312 312 314 314 315 317 317 316 315 316 317 317 317 318 319 318 317 316 316 317 317 318 319 321 322 323 328 331 330 328 331 335 336 339 348 351 351 352
303 304 304 304 304 304 304 304 304 304 305 304 303 303 305 306 307 307 308 308 307 306 306 306 306 305 305 304 303 307 310 310 311 311 308 307 307 306 309 310 307 308 311 310 311 312 311 312 312 313 313 312 313 314 314 316 316 316 316 316 316 317 318 318 318 317 317 316 316 317 317 319 319 319 319 319 324 329 331 331 330 334 335 338 347 351 350 350
304 304 304 304 304 304 304 304 304 304 304 304 303 302 303 305 306 306 307 308 308 307 307 306 305 305 305 304 305 308 308 310 310 310 307 306 307 306 309 313 311 310 313 311 311 311 310 312 312 313 313 312 313 313 314 315 316 316 316 316 316 317 317 317 318 317 317 316 316 317 317 318 318 318 320 320 322 326 333 334 332 334 336 341 347 350 350 350
304 304 304 304 304 304 304 304 304 304 304 304 304 303 302 303 305 306 306 307 308 307 307 306 305 304 304 304 307 308 307 309 310 310 308 306 308 307 307 316 320 315 314 312 311 311 310 311 312 313 313 313 313 313 314 315 315 316 316 316 317 317 317 317 318 317 317 317 316 317 317 318 319 319 318 321 322 325 335 337 336 339 340 344 348 349 350 350
304 304 304 304 304 304 304 304 304 304 304 304 304 304 303 302 304 305 305 306 308 307 307 306 305 303 303 306 307 307 308 309 309 309 309 307 308 308 306 316 323 318 314 313 312 311 311 311 312 313 314 314 314 313 314 314 314 315 316 316 316 317 317 317 317 317 317 316 316 317 316 318 318 318 320 323 324 328 336 338 337 341 343 344 347 349 350 349
304 304 303 303 304 304 304 304 304 304 304 304 304 304 304 302 302 304 305 306 307 308 307 306 305 303 304 307 307 307 308 308 309 309 309 308 307 308 307 311 318 319 315 313 312 311 311 311 312 313 313 314 314 313 313 314 314 316 316 315 316 316 317 317 316 317 316 316 317 316 316 318 318 320 323 324 326 334 337 337 339 341 342 343 345 347 349 349
304 304 304 304 303 303 304 304 304 304 304 304 304 304 304 303 302 303 305 305 306 308 307 306 305 304 305 306 305 307 308 308 309 308 308 308 307 307 308 309 312 315 316 314 312 311 311 312 313 313 313 313 313 314 314 314 315 316 316 316 315 315 316 317 316 317 317 316 316 316 318 317 318 322 326 328 333 338 337 339 341 339 340 342 345 347 348 348
304 304 304 304 303 303 304 304 304 304 304 304 304 304 304 303 302 302 304 305 306 307 307 306 305 304 306 306 305 307 308 308 308 307 307 307 307 307 308 309 309 311 314 315 313 311 311 312 313 313 313 313 313 313 314 314 315 315 315 315 315 315 315 316 316 317 317 317 316 317 315 316 319 320 326 336 338 338 338 340 342 340 341 344 346 347 347 348
303 303 303 303 303 303 303 304 304 304 304 304 303 303 303 303 302 301 303 304 305 307 307 306 305 305 306 306 306 307 307 307 307 307 307 306 307 308 308 308 308 308 311 314 314 312 311 311 312 313 313 313 313 313 314 314 314 314 315 315 315 314 314 316 316 316 317 316 317 316 311 314 318 318 333 343 340 339 341 343 342 341 343 344 347 347 347 347
302 302 302 303 303 303 303 303 303 304 304 304 303 303 303 303 302 300 301 304 304 306 307 305 305 306 307 307 307 307 307 307 307 306 307 307 307 308 308 308 309 308 309 313 315 312 311 311 312 312 313 313 313 314 314 314 314 314 314 314 314 311 312 316 316 316 316 315 317 315 310 313 317 327 341 344 342 342 344 346 345 343 345 346 347 347 346 346
303 302 302 302 303 303 303 303 303 303 303 303 303 303 303 303 301 299 300 303 305 306 306 305 305 306 307 307 307 308 307 307 307 307 306 306 307 308 309 309 309 309 310 313 314 312 311 311 312 311 312 313 313 313 313 313 314 314 311 310 312 309 311 317 316 315 316 315 317 316 311 313 328 339 342 342 343 346 345 347 347 345 346 347 348 348 347 346
303 302 302 302 302 302 302 302 302 302 303 303 303 303 303 303 301 300 300 302 304 306 306 305 306 306 306 307 307 307 306 307 308 307 306 306 307 309 309 309 309 310 312 313 313 312 311 312 311 311 312 312 312 313 313 312 312 313 311 308 309 309 310 315 316 316 316 316 316 316 312 317 336 343 343 344 345 346 346 347 348 347 347 347 348 348 347 347
303 303 303 302 302 302 302 301 300 301 302 303 302 302 302 302 301 300 300 301 303 305 305 305 306 306 307 307 307 306 306 307 307 307 307 306 307 308 309 309 309 311 313 313 312 311 311 311 311 310 311 312 312 313 312 309 309 311 311 309 310 311 310 312 315 316 316 316 316 317 315 323 337 341 343 346 346 345 347 348 348 347 347 347 348 348 347 347
303 303 303 302 302 302 302 301 298 298 300 302 302 302 302 301 301 300 301 302 304 305 305 305 305 306 307 306 306 307 308 308 307 307 307 307 307 308 309 309 310 312 312 311 310 310 311 311 311 310 311 311 312 312 310 309 310 310 309 309 310 311 310 311 314 316 316 315 317 316 315 326 337 339 342 343 344 343 344 348 348 347 347 348 348 347 344 344
302 302 302 302 302 302 302 301 299 298 299 301 302 301 302 301 301 302 302 304 304 304 305 306 305 306 308 306 307 308 308 307 306 306 307 307 308 308 309 309 310 311 310 309 309 309 310 311 311 310 310 311 312 312 311 312 313 312 312 310 309 310 310 314 317 317 317 315 317 317 315 326 335 337 340 342 343 341 340 345 349 348 348 349 346 341 339 339
302 302 302 302 302 302 301 301 300 299 299 300 301 302 302 302 302 303 303 303 304 304 305 305 305 306 306 306 307 307 307 306 305 306 306 307 307 308 309 309 310 310 310 310 309 309 310 311 311 310 311 312 312 313 313 314 315 315 314 312 311 311 311 315 318 316 317 315 316 318 317 323 331 333 336 338 341 342 340 345 349 348 348 347 342 335 335 336
300 301 302 302 302 301 301 301 300 299 299 301 302 302 302 302 302 302 303 303 304 304 303 303 305 306 306 307 307 307 307 306 306 306 306 307 307 307 308 308 310 310 310 310 309 309 311 311 312 312 312 312 312 313 313 314 315 315 314 312 311 312 312 316 317 316 316 315 314 318 318 319 325 332 332 336 340 341 340 345 348 348 346 345 340 334 334 335
300 300 301 301 301 301 300 300 299 299 300 301 302 302 302 302 301 302 303 302 303 304 303 303 304 305 306 307 308 308 307 306 306 306 307 308 306 307 307 308 310 310 310 310 310 310 311 311 312 313 313 313 313 313 313 314 315 316 315 312 309 312 314 315 316 316 316 315 315 317 318 318 321 331 333 334 339 340 339 343 345 346 346 344 340 336 334 334
300 300 301 301 300 300 300 299 298 299 300 301 302 302 302 302 302 302 303 302 302 302 302 302 303 304 305 306 307 307 306 306 306 306 307 308 307 307 308 308 309 311 310 310 310 310 310 311 312 313 313 312 312 313 314 314 315 316 315 311 309 312 313 311 314 316 316 315 316 318 317 318 321 332 337 337 338 339 337 340 343 344 346 345 340 336 335 336
300 300 300 300 300 300 300 298 299 300 301 301 302 301 302 302 302 302 302 302 300 301 302 303 303 303 304 305 307 307 306 306 306 306 307 307 307 307 308 309 309 311 311 310 310 310 311 312 312 313 312 312 312 312 313 314 314 316 315 312 310 313 313 312 314 316 316 315 317 317 313 316 321 329 337 339 340 342 339 341 345 345 345 344 341 338 337 338
300 300 300 300 300 299 299 298 300 301 301 301 301 301 302 302 302 302 302 302 300 301 302 303 303 304 304 306 306 306 306 306 306 307 307 308 308 308 308 309 310 310 311 310 310 310 311 312 312 312 312 312 312 312 313 313 313 313 315 314 313 315 315 315 316 314 312 311 314 316 310 312 320 327 337 339 340 346 345 345 346 345 345 343 343 342 339 339
299 299 300 300 299 299 298 299 300 301 301 301 302 301 302 301 302 302 302 301 300 301 301 302 303 304 305 305 305 306 306 306 306 307 308 308 308 308 309 309 310 311 311 311 311 311 312 312 312 312 311 312 311 311 312 313 312 310 313 316 315 317 315 314 315 312 309 309 314 318 311 311 319 327 336 339 339 346 346 346 346 345 345 344 344 344 341 341
299 299 299 299 299 298 299 300 300 301 301 301 301 301 301 301 301 302 301 300 301 301 301 302 303 305 305 305 305 305 306 307 307 306 307 307 308 309 309 309 310 311 311 312 311 311 313 312 311 312 312 311 310 310 312 313 311 310 314 316 315 316 315 315 314 311 310 311 314 317 313 311 316 325 334 335 336 340 341 344 344 343 344 342 343 344 342 341
299 299 299 299 299 298 299 300 300 302 301 300 301 301 302 302 302 302 300 301 303 302 301 302 304 305 305 306 305 305 307 308 306 306 306 307 308 308 309 310 309 311 312 312 310 312 313 312 311 312 311 311 310 311 313 313 311 312 315 316 315 316 315 315 314 311 312 311 309 312 312 310 311 320 330 333 331 332 336 341 342 341 340 340 341 343 342 342
299 298 298 299 298 298 299 299 301 301 301 301 302 301 301 301 302 302 300 302 304 302 303 304 304 304 305 305 305 305 306 307 306 306 306 307 308 308 309 310 310 311 312 312 312 312 313 313 312 312 311 311 311 312 312 312 312 314 316 315 315 315 315 315 314 311 311 311 308 309 311 310 309 314 323 328 327 328 332 336 338 340 339 338 340 341 341 342
300 299 298 298 299 299 300 300 301 300 300 301 301 300 300 301 302 301 301 303 304 304 304 303 304 304 305 305 306 305 305 306 306 305 306 307 308 309 309 310 311 311 312 313 313 313 313 313 312 312 312 312 312 312 312 312 312 314 315 315 314 314 315 315 314 311 309 310 310 310 311 311 309 312 319 325 327 328 329 331 333 338 340 338 338 338 340 341
300 298 297 298 300 300 300 302 302 300 301 301 301 300 300 301 302 301 303 304 304 306 305 304 304 304 304 305 305 305 305 306 306 305 305 306 308 308 309 310 311 311 313 313 313 314 313 313 313 313 312 312 312 311 312 312 312 314 313 313 312 312 312 312 311 311 310 310 310 311 312 311 308 310 319 325 327 327 328 330 331 332 335 335 335 337 339 340
300 298 297 297 300 300 300 301 301 301 301 301 301 301 301 301 302 302 303 304 305 306 306 305 305 304 304 305 305 305 304 306 306 305 305 306 307 309 310 311 311 311 312 312 312 313 314 313 313 313 312 312 312 310 311 312 312 313 312 311 310 310 311 311 311 311 311 310 311 312 311 309 309 312 319 325 326 327 327 329 329 329 332 333 333 336 339 340
299 298 297 298 299 300 300 301 301 301 301 301 301 301 301 302 303 302 303 305 306 305 306 306 305 304 304 305 305 305 304 306 306 306 306 306 307 308 309 311 311 311 313 313 312 312 313 314 313 312 312 312 312 310 309 310 311 311 310 309 309 310 312 314 312 311 311 310 311 312 311 309 309 313 319 324 326 327 326 327 328 328 331 333 333 336 338 340
299 299 299 299 299 300 300 300 301 301 301 301 301 301 302 302 304 304 304 305 305 305 306 306 305 305 304 305 305 304 305 306 306 306 306 306 308 308 309 310 311 312 313 314 312 311 313 314 313 312 311 311 312 311 311 311 310 311 312 311 309 309 312 313 311 311 311 311 310 312 311 309 309 314 320 322 324 325 325 324 326 328 331 331 333 336 337 338
299 300 301 301 300 300 300 301 302 301 302 302 301 302 303 303 304 306 305 305 305 304 304 305 306 306 304 305 306 304 305 307 306 307 307 307 308 308 308 310 311 312 314 314 313 312 312 313 313 313 312 311 312 312 314 313 310 311 312 311 309 310 312 311 311 312 312 310 310 311 311 311 315 321 322 322 324 325 325 323 326 332 332 330 333 337 338 337
301 301 302 302 302 301 301 301 302 302 302 302 302 303 303 304 305 305 305 304 304 304 304 305 307 307 305 305 305 304 305 307 307 307 308 308 308 308 309 310 311 312 313 314 313 312 311 312 313 313 312 312 312 313 314 312 310 311 310 309 310 314 314 310 310 313 313 311 311 310 310 312 317 323 323 322 324 325 326 325 329 334 332 330 335 339 339 339
302 302 303 303 302 302 302 302 302 302 303 303 303 304 304 304 305 304 304 304 304 304 305 306 308 307 305 306 305 304 306 307 307 307 308 308 309 309 309 309 311 312 313 314 313 313 312 312 313 313 312 312 313 313 313 312 312 311 309 310 313 314 314 312 310 313 313 312 311 311 311 311 311 315 322 323 323 324 326 325 329 335 334 333 337 337 337 338
303 303 304 304 303 303 303 302 303 303 303 303 303 305 304 305 305 305 305 304 304 304 305 306 308 307 306 306 304 304 306 307 307 308 309 309 309 310 309 310 311 311 313 313 313 314 313 311 312 313 312 312 312 312 311 312 313 312 311 313 312 310 310 310 311 313 313 313 312 311 311 312 309 312 320 323 322 324 325 323 325 333 337 338 339 337 336 339
303 303 304 304 303 303 303 302 303 302 303 304 304 305 305 305 305 306 305 304 304 305 305 306 308 309 307 306 305 305 306 308 308 308 309 309 310 310 309 310 311 311 312 313 314 314 314 313 312 312 312 312 311 311 310 311 312 313 313 313 312 311 310 310 311 312 312 312 313 311 311 312 312 315 320 323 325 324 324 324 324 328 335 339 341 339 338 340
304 303 304 304 303 303 302 302 303 303 304 305 304 305 305 304 305 306 305 304 304 304 305 306 308 310 309 306 305 306 307 308 308 309 310 310 310 310 310 310 310 310 312 312 313 314 314 314 312 311 311 311 311 311 311 311 311 311 311 310 311 312 312 312 312 310 311 311 311 312 312 311 315 320 322 324 326 324 325 326 325 327 333 338 340 340 340 341
304 303 304 304 302 302 302 302 304 304 304 304 304 305 304 304 304 304 304 304 304 304 304 305 308 310 310 308 305 306 307 308 308 309 310 310 310 310 310 311 311 311 312 312 313 314 313 314 313 311 310 309 310 311 311 312 312 311 311 310 310 312 311 311 311 310 310 309 310 311 311 311 317 320 321 324 326 324 325 325 326 329 335 337 339 340 341 341
303 304 304 304 303 303 302 304 305 304 303 304 304 303 303 304 303 303 303 304 304 304 305 306 308 310 310 309 305 306 308 308 308 310 311 310 311 311 310 311 312 311 312 312 313 314 314 314 312 310 310 310 311 312 312 313 313 312 312 313 313 313 310 309 310 310 309 308 309 310 308 314 326 326 320 324 328 326 326 326 329 332 334 337 340 341 341 341
302 303 304 304 303 303 304 305 305 303 303 303 303 303 304 305 304 304 304 304 305 306 307 308 309 310 310 308 306 307 308 309 309 309 311 310 311 311 310 311 311 311 313 313 313 314 315 314 312 310 310 311 311 312 312 313 313 312 312 313 313 313 312 312 312 311 310 308 309 309 309 317 332 335 329 327 329 331 330 327 329 334 335 336 339 340 341 340
302 302 303 304 303 303 304 305 304 303 304 304 305 305 305 305 305 305 305 305 306 307 308 310 310 309 309 308 307 308 308 310 310 309 311 311 311 312 311 310 311 311 312 313 314 313 313 314 312 310 311 311 311 311 311 311 311 312 312 313 314 313 313 315 313 313 312 309 309 311 310 317 331 338 335 331 328 330 332 328 330 336 338 337 338 339 339 339
304 304 303 304 304 303 304 304 304 305 306 306 306 306 306 306 306 306 306 306 306 307 309 311 310 309 309 308 308 308 309 310 310 310 310 310 311 312 310 310 311 311 312 315 316 313 313 315 312 310 311 313 312 311 311 310 311 312 312 312 313 313 314 313 311 311 311 310 310 309 310 320 334 338 334 331 328 330 333 332 333 337 339 338 338 338 339 339
305 305 304 304 304 304 304 305 305 305 306 306 307 307 307 307 307 306 307 307 307 308 309 310 310 310 309 309 309 309 309 309 310 310 310 310 311 310 310 311 310 311 316 319 317 313 313 315 314 312 311 311 311 312 312 312 311 311 312 311 312 313 314 314 311 309 310 311 310 310 313 322 331 333 331 330 330 332 335 335 335 336 338 339 339 339 338 338
305 305 305 305 305 305 305 305 305 305 306 306 306 307 306 306 307 307 308 308 309 309 310 311 311 310 309 310 310 309 309 309 310 310 310 310 311 310 310 310 309 316 321 318 313 313 313 313 315 315 312 311 312 313 314 313 312 311 311 311 312 312 314 314 311 311 312 311 310 312 315 318 322 328 330 329 331 334 335 336 337 336 337 339 339 338 337 336
306 305 304 304 305 306 306 306 305 305 306 305 305 306 306 306 307 309 309 309 309 310 311 312 311 310 309 309 311 310 310 310 310 311 311 310 310 310 310 309 310 317 319 313 311 314 314 312 314 315 314 314 315 314 314 313 312 313 312 312 312 312 313 314 313 314 315 312 311 314 316 315 319 325 327 327 331 333 335 337 339 338 338 338 338 338 337 335
305 304 304 304 304 304 305 305 305 305 305 305 305 306 306 306 308 310 311 311 311 311 311 312 311 309 308 309 310 311 311 312 312 312 312 311 311 311 311 310 311 313 312 311 313 314 313 313 315 315 315 317 317 315 314 313 312 312 312 313 314 314 314 314 315 316 316 314 314 316 317 316 319 324 325 326 329 329 333 338 339 338 337 337 337 338 337 336
303 303 303 303 303 304 305 305 305 306 306 306 307 307 306 306 309 311 312 313 314 314 313 313 312 310 310 309 310 312 312 312 313 313 313 313 312 311 311 311 311 311 310 312 314 314 313 313 315 316 316 318 319 317 315 314 313 312 313 313 314 314 314 314 316 317 316 315 317 318 318 317 319 325 327 329 329 328 331 337 339 338 337 336 337 337 337 336
303 303 302 302 303 305 307 309 309 309 309 308 308 308 307 308 310 313 313 313 314 315 315 315 314 314 313 310 313 317 316 313 313 313 313 312 312 312 311 311 311 311 311 312 314 315 315 314 314 315 315 316 318 318 316 315 314 313 313 313 314 315 314 314 316 317 316 316 317 317 316 317 322 330 333 333 333 331 332 336 337 337 336 335 336 337 337 336
302 302 302 303 304 306 309 311 312 312 312 312 312 311 311 312 312 313 314 314 314 315 315 316 316 316 313 312 316 320 319 317 317 316 313 312 311 311 311 311 311 311 311 313 314 314 315 314 314 314 313 315 318 317 317 317 314 312 313 315 315 315 316 316 316 317 317 318 317 316 316 318 324 330 332 333 334 334 335 334 335 336 335 334 336 335 334 333
Wind_Speed
14 15 15 15 14 14 14 13 13 14 13 13 12 12 12 12 13 13 12 12 13 14 14 15 15 16 18 19 20 22 23 22 20 17 17 17 14 12 14 13 10 10 9 10 11 10 11 13 14 14 13 10 9 9 11 10 8 7 7 9 9 10 11 11 12 10 9 6 6 6 5 5 7 4 4 6 8 11 11 9 8 8 7 8 13 25 32 31
14 14 15 15 15 14 14 14 13 13 14 14 14 14 13 13 12 12 13 12 13 13 14 15 15 16 18 19 22 23 22 21 21 20 19 19 17 16 17 17 16 11 9 13 14 13 12 12 13 14 11 9 9 10 11 10 9 9 7 9 10 10 12 12 12 7 6 7 3 5 4 6 6 2 2 5 9 12 12 11 12 12 11 18 19 22 26 29
14 14 15 15 15 15 15 14 14 14 14 14 14 15 15 14 13 12 12 13 13 12 13 14 15 17 17 20 23 21 20 21 19 14 9 12 17 19 20 18 19 13 11 16 15 14 13 12 13 13 11 9 9 11 12 10 10 10 9 9 10 12 14 9 8 6 3 6 3 5 4 5 6 4 3 6 9 11 12 12 13 14 13 17 17 19 22 26
14 15 15 15 15 15 15 15 14 15 15 15 15 15 15 15 15 13 12 13 14 13 12 12 14 16 17 21 21 19 19 18 11 1 6 7 9 10 14 16 18 16 14 16 15 14 14 14 12 13 12 10 10 11 12 10 9 9 10 11 10 12 13 7 6 8 6 5 7 7 4 6 7 5 5 7 9 8 11 12 13 14 15 18 18 19 21 23
15 15 15 15 15 15 15 15 15 15 15 15 15 15 15 15 15 15 13 12 13 13 12 11 13 15 18 21 20 18 15 9 2 10 9 6 5 2 4 8 13 17 17 16 15 14 14 15 12 12 11 10 11 11 12 13 10 9 12 14 14 11 10 6 5 7 7 6 8 8 8 8 5 4 7 9 9 7 8 12 13 14 16 19 19 18 19 20
16 16 16 16 16 16 16 15 15 15 15 15 16 15 15 15 15 15 15 13 12 13 13 12 12 13 17 21 20 18 12 4 4 8 6 8 7 4 2 2 8 15 17 18 17 15 14 14 12 11 11 11 13 13 11 14 13 10 11 14 16 13 9 7 5 4 6 8 9 9 10 9 6 7 9 9 10 9 5 10 14 15 17 19 19 18 19 20
16 16 17 17 17 17 17 16 16 15 16 15 16 15 15 15 16 15 15 14 12 12 13 12 12 12 17 20 19 15 11 10 3 5 5 6 4 4 3 2 7 13 18 20 18 16 14 15 15 12 12 11 14 14 12 14 15 12 11 12 15 16 13 8 5 5 6 9 10 9 9 9 9 9 8 8 11 10 5 4 10 12 16 19 19 18 19 19
17 17 17 17 17 18 17 17 17 16 16 15 16 16 15 15 16 16 16 15 12 12 12 12 12 12 14 16 14 10 11 15 7 5 4 4 2 5 5 4 10 14 18 21 20 17 15 16 17 13 12 12 12 14 13 13 15 15 14 12 12 14 14 10 8 8 8 9 9 10 11 12 11 10 9 8 9 9 4 3 8 12 16 18 18 18 18 18
18 19 19 18 18 18 18 18 18 17 16 16 16 15 16 16 16 16 15 15 13 12 11 11 12 12 12 12 11 8 8 9 4 4 2 4 5 7 9 6 12 16 18 21 23 21 16 14 16 15 13 13 13 14 13 13 12 13 16 15 11 11 11 11 12 12 11 9 9 12 14 13 13 11 10 11 10 9 9 8 9 13 15 16 16 16 16 18
18 19 19 19 19 19 19 20 19 18 17 16 16 15 16 16 16 15 15 15 14 13 12 11 12 12 12 11 10 8 2 2 2 2 1 5 7 9 10 7 8 14 18 20 23 23 17 14 15 14 13 12 12 13 13 13 10 9 14 17 16 12 10 11 12 13 12 11 12 13 13 14 13 10 9 12 10 8 11 13 13 14 15 15 15 15 15 17
18 18 19 19 19 19 20 21 20 19 18 17 16 15 16 16 16 15 14 15 14 15 12 11 12 11 13 13 11 8 3 5 1 3 6 8 9 10 10 8 7 11 16 18 21 24 21 19 15 11 10 10 11 12 12 13 11 8 9 14 18 15 11 12 13 12 11 10 14 13 13 14 13 10 10 8 10 10 12 14 15 15 15 15 15 15 13 14
19 19 19 19 19 19 20 21 21 19 18 17 16 16 16 16 17 16 15 14 15 15 12 11 12 12 15 14 13 15 11 12 16 14 13 12 10 11 11 10 10 11 14 16 19 23 24 21 17 13 10 7 10 10 10 14 14 11 9 11 15 16 14 15 14 13 11 10 13 12 13 14 13 14 12 8 11 12 13 14 14 14 14 14 14 14 12 13
19 19 19 19 19 19 20 20 20 20 19 18 17 16 16 16 17 16 16 14 14 15 13 11 12 14 16 13 15 23 25 26 25 22 18 15 14 14 13 14 14 13 14 15 18 21 23 22 19 16 11 9 10 5 4 12 14 12 11 9 11 13 14 17 16 14 14 12 12 13 10 11 16 17 8 6 9 14 13 13 13 12 12 13 13 13 13 14
19 19 19 19 19 19 20 19 20 20 19 19 17 17 17 17 17 17 17 15 14 13 12 11 12 15 14 14 21 27 28 27 25 25 22 16 15 14 14 15 15 15 14 16 17 18 21 22 18 15 12 11 10 4 4 10 12 11 12 9 9 9 10 16 17 16 16 12 14 14 9 10 15 13 13 8 4 10 12 12 11 11 12 13 13 13 14 15
19 20 19 19 19 19 19 19 19 19 19 19 18 17 16 17 18 17 17 16 14 13 12 12 13 14 12 14 21 21 23 26 26 28 23 17 16 13 13 15 15 14 14 15 16 15 19 20 14 11 11 12 12 7 7 9 9 10 11 9 10 9 10 15 18 18 17 13 15 14 10 10 7 13 18 11 6 7 10 12 12 13 13 13 13 12 13 13
19 20 20 19 19 19 19 18 18 18 19 19 18 18 16 17 18 16 16 15 14 13 12 12 14 14 10 11 15 13 15 20 21 22 20 18 17 14 13 15 15 14 14 15 14 13 15 15 11 11 11 12 12 8 8 9 8 10 10 9 11 11 11 11 16 18 18 14 16 16 13 7 7 12 14 15 12 11 11 12 13 13 13 13 12 12 11 12
20 20 20 19 19 19 19 19 19 18 19 18 18 19 17 17 18 16 15 15 14 13 13 11 12 11 10 13 15 11 12 15 14 12 14 17 17 16 13 12 13 14 13 16 16 12 12 12 10 11 11 10 11 9 10 10 10 9 10 10 11 14 13 9 13 16 19 17 16 18 16 5 11 11 10 11 12 13 11 11 12 12 13 13 11 11 10 11
22 21 20 20 19 18 18 19 19 19 19 18 19 19 17 18 19 17 16 13 11 10 11 11 9 6 7 14 18 13 7 7 8 9 10 12 15 17 15 11 12 14 13 14 16 13 11 11 10 10 11 11 12 12 11 11 11 11 11 10 10 13 15 11 12 14 19 19 15 18 18 7 12 10 9 10 11 11 11 10 12 13 12 12 10 9 6 8
22 21 21 20 19 18 18 18 19 19 19 18 19 19 18 18 17 16 16 13 9 7 6 8 10 6 3 6 15 14 8 4 5 10 12 12 14 16 16 14 12 15 14 12 15 16 11 10 11 11 12 13 15 15 14 13 13 13 13 12 12 10 13 13 10 14 19 17 14 16 17 11 12 11 10 9 9 10 11 11 11 11 11 10 8 7 5 2
21 21 20 19 18 17 18 18 19 19 18 18 18 15 12 10 9 10 13 13 12 13 11 10 16 16 14 11 8 8 5 8 10 13 16 16 16 16 15 14 14 14 14 13 15 16 12 11 13 13 14 16 18 18 18 17 14 14 13 13 14 10 12 14 8 13 17 14 14 16 17 16 13 13 13 10 10 12 13 14 12 12 11 9 10 11 11 8
22 20 18 17 16 17 18 18 19 19 16 17 16 11 8 10 8 3 4 11 17 21 21 17 17 19 19 18 12 5 4 8 10 13 16 18 18 17 14 15 16 13 15 17 15 14 13 13 15 17 17 17 18 18 20 19 14 12 12 12 14 10 11 13 8 11 15 11 13 16 16 18 14 13 14 14 14 12 12 13 12 13 12 9 11 12 13 12
21 19 17 16 16 16 17 18 19 18 16 16 15 13 12 14 11 6 3 8 13 20 23 22 20 19 18 20 20 14 10 9 10 12 14 18 18 16 15 16 16 13 17 18 14 13 14 14 17 19 17 17 18 18 19 19 13 9 10 10 11 10 12 13 11 11 13 9 11 16 15 15 12 13 13 13 12 11 12 11 11 12 12 10 11 11 13 14
21 19 17 16 16 16 17 18 18 17 15 15 17 16 15 16 13 8 7 8 10 14 18 21 22 20 20 22 22 19 16 13 12 12 15 17 17 17 16 17 17 16 18 19 16 14 12 13 18 18 17 18 18 18 19 16 11 9 10 9 10 12 12 9 10 11 13 10 12 15 14 12 10 13 14 13 12 11 11 11 12 12 11 11 10 9 11 14
22 20 17 16 16 16 16 17 17 15 15 16 19 18 14 13 12 10 9 7 10 11 15 20 19 18 21 21 20 19 17 14 12 13 18 18 16 16 16 17 19 17 18 22 21 17 13 14 18 19 19 20 17 18 19 13 9 11 12 10 10 13 11 7 9 12 12 14 15 13 11 9 10 13 12 14 16 15 13 14 13 12 11 11 12 11 10 12
22 19 16 15 16 15 15 15 13 14 15 15 16 15 13 12 11 9 7 6 8 9 14 19 15 16 24 24 21 18 15 15 15 14 17 21 18 15 14 14 14 16 20 25 22 16 14 16 19 21 19 20 17 17 19 14 9 11 13 12 13 13 12 9 11 13 10 12 14 12 9 8 11 12 9 10 13 14 14 14 14 12 11 11 12 13 11 10
20 17 15 14 14 14 12 9 8 10 11 10 11 11 10 11 10 7 4 5 7 8 14 16 11 14 21 20 19 16 14 15 16 17 16 21 21 15 13 11 10 15 20 20 15 9 12 17 20 21 20 21 18 15 19 17 10 9 12 14 15 12 14 12 12 12 8 9 13 13 10 7 9 12 12 11 10 11 11 11 11 10 10 10 10 12 12 11
18 15 13 12 11 10 8 7 9 10 7 4 5 6 6 7 7 3 3 5 6 8 14 14 11 14 19 19 18 16 12 10 14 20 18 18 21 17 14 14 11 14 15 13 11 9 14 20 22 22 21 19 17 13 17 18 12 7 12 16 13 10 12 13 12 11 8 8 12 15 14 9 7 12 14 14 9 9 10 10 9 8 7 9 10 11 12 13
16 14 12 9 9 9 9 11 11 8 5 3 2 2 1 3 6 4 3 5 2 5 10 13 12 13 15 18 22 19 13 9 14 18 19 19 21 16 15 17 16 16 17 14 11 12 16 20 22 22 19 15 14 14 16 19 14 8 13 17 11 6 9 11 10 10 9 9 10 15 16 11 7 10 13 15 13 13 13 13 12 11 8 8 9 11 13 14
15 14 11 9 8 9 11 13 11 7 5 2 4 4 3 2 5 4 3 5 2 3 4 11 13 12 13 17 22 21 16 11 11 15 18 19 19 15 12 15 18 19 20 17 12 12 15 17 19 19 15 13 14 15 16 18 15 8 10 16 12 8 9 9 8 9 10 10 10 13 15 10 7 9 12 14 16 16 14 13 14 15 14 13 12 12 12 14
15 13 10 9 8 9 10 10 10 8 3 2 4 5 3 2 3 5 5 4 3 1 0 8 11 13 17 18 18 21 19 15 11 17 17 16 18 15 11 12 16 16 17 17 16 15 14 14 15 14 14 13 15 16 15 18 18 7 7 12 12 10 9 8 7 8 9 9 11 15 16 14 10 8 11 12 13 16 15 13 13 15 16 15 13 12 12 12
16 12 9 9 7 9 9 5 4 5 1 2 3 5 4 2 3 5 4 1 2 1 2 8 13 14 20 20 16 19 21 17 14 20 17 15 16 14 11 11 13 12 14 15 15 14 14 13 12 13 16 15 15 16 14 18 19 9 7 11 10 9 9 7 7 8 9 9 11 16 18 16 12 7 10 12 14 15 16 16 16 15 14 12 10 10 11 11
15 11 9 9 9 9 10 5 4 3 2 0 0 2 2 4 5 7 3 3 1 3 5 4 12 16 20 20 17 19 20 16 17 21 18 16 15 13 14 13 12 14 14 14 15 15 15 15 15 14 17 17 15 14 13 15 17 11 9 11 10 9 8 8 9 9 9 8 10 16 18 14 11 10 10 12 14 15 14 16 19 20 17 14 13 11 10 10
14 11 9 9 9 9 9 6 4 2 1 2 2 1 3 4 4 6 4 4 1 1 5 7 9 17 21 18 17 19 19 16 17 20 19 19 15 15 18 17 17 16 12 14 16 14 12 14 18 17 15 16 16 13 11 12 15 12 11 11 10 9 9 10 9 8 9 8 10 16 17 12 9 10 11 12 13 14 15 14 17 22 21 18 17 14 11 10
14 11 11 9 9 9 8 6 4 2 1 2 2 2 5 6 5 3 1 3 3 3 6 10 8 14 20 17 16 19 17 14 19 19 18 19 15 14 17 18 21 17 11 14 14 14 13 11 17 18 13 16 18 14 11 12 14 13 11 11 10 9 8 8 8 8 9 9 10 12 13 11 8 6 8 12 11 12 14 15 15 18 20 17 16 15 13 12
15 12 12 10 9 8 7 7 5 4 4 3 3 4 6 6 5 3 3 3 4 6 9 12 8 11 17 16 17 22 16 12 20 20 16 17 14 15 16 16 22 20 13 13 11 13 15 10 15 17 12 17 18 14 14 14 13 11 10 11 10 10 8 7 7 6 5 8 10 8 8 9 6 3 2 9 11 8 9 11 11 16 18 16 14 15 15 13
15 12 10 8 7 6 6 7 6 7 6 4 4 6 5 4 3 2 2 1 4 6 12 11 7 11 13 13 16 23 19 12 20 18 14 18 16 18 18 15 20 22 16 13 10 12 13 10 17 17 13 18 18 14 14 13 10 9 11 11 10 11 10 8 8 3 3 8 9 7 7 8 7 4 3 7 10 10 9 8 10 16 18 17 14 14 14 13
12 10 7 6 6 4 5 7 7 7 6 4 6 6 4 3 2 1 1 1 3 3 8 6 6 10 12 12 15 23 19 13 19 16 13 17 16 17 20 17 21 24 19 15 10 11 11 9 17 19 15 18 18 15 14 13 11 9 10 11 9 11 11 8 8 6 6 9 8 10 12 10 10 8 8 12 13 13 13 12 12 15 15 13 13 15 15 14
10 7 5 6 6 4 6 7 7 7 4 4 8 9 6 2 2 2 1 2 3 3 6 5 4 10 13 12 15 22 18 13 18 16 13 15 14 18 21 17 21 23 22 18 11 11 13 8 13 19 16 16 17 16 12 13 16 12 9 11 9 9 10 8 8 8 10 9 8 12 15 11 11 8 10 15 15 14 15 15 15 16 15 13 14 16 17 17
8 5 3 6 6 5 6 7 7 6 4 5 9 7 4 3 1 2 2 2 3 4 6 6 3 7 10 12 16 20 17 15 18 15 13 12 12 19 21 16 18 22 23 19 12 10 12 8 9 16 17 15 14 13 10 12 15 14 10 12 10 7 7 8 8 7 9 9 8 12 13 9 10 9 12 16 15 16 16 14 15 16 18 16 15 17 17 16
6 4 1 6 7 5 6 7 7 5 5 6 7 5 4 5 3 1 2 4 4 4 5 6 6 5 8 13 19 17 14 16 18 14 12 13 13 18 21 18 18 22 23 20 14 10 11 8 8 13 16 15 12 12 13 13 13 11 9 12 11 7 7 8 8 7 8 8 7 9 10 8 7 8 12 15 15 15 15 15 14 14 17 17 16 16 16 16
5 4 2 7 8 6 5 5 5 5 6 7 6 6 6 5 5 5 4 4 5 6 7 9 9 7 8 11 18 16 12 14 16 13 10 13 13 13 18 20 19 21 21 17 14 11 8 8 9 11 13 13 12 15 16 15 15 12 8 10 11 9 8 9 9 9 8 8 8 7 8 7 6 7 10 12 13 14 15 15 13 13 16 16 15 16 17 16
5 3 2 7 9 8 5 5 5 6 6 6 5 6 6 5 6 8 6 4 6 8 8 10 10 9 9 11 17 16 11 12 15 12 10 14 13 11 18 22 20 22 19 13 14 13 7 7 10 11 11 12 14 17 17 17 17 14 11 11 10 10 10 8 8 9 8 9 8 8 8 4 1 2 6 6 6 9 12 12 12 13 15 14 15 16 16 16
4 3 2 7 9 8 5 6 6 6 5 6 7 7 7 7 7 7 6 5 6 7 7 8 8 8 9 11 17 15 12 12 14 13 12 14 13 13 20 23 21 22 17 12 14 13 6 5 9 10 10 10 13 15 16 17 16 13 13 13 10 11 11 8 7 7 7 9 8 7 7 4 2 1 2 4 5 6 9 11 11 11 13 14 15 16 15 16
4 4 1 6 8 7 6 6 6 6 6 8 9 9 8 7 7 8 8 6 5 6 6 6 5 7 9 9 15 14 11 11 13 12 12 13 11 14 21 23 21 20 15 12 12 10 5 7 10 11 11 11 12 14 14 16 14 10 12 14 13 14 15 11 9 6 7 10 11 8 6 4 4 4 2 6 10 10 11 13 13 12 13 14 14 14 15 15
4 4 2 4 7 6 6 6 7 8 9 10 11 11 9 6 5 8 9 9 9 9 7 4 3 6 8 8 13 13 11 11 11 10 11 12 11 14 21 23 23 20 16 13 12 10 8 9 9 11 11 11 12 12 11 12 12 9 13 17 17 17 17 13 9 7 7 10 11 10 5 2 4 6 6 8 11 11 12 14 14 13 13 14 15 15 15 15
4 3 2 3 5 5 7 7 8 8 7 8 9 8 6 5 5 6 8 8 9 10 9 6 5 6 7 8 11 12 12 12 11 9 12 12 9 12 19 22 22 21 15 8 10 10 8 9 11 11 11 11 11 11 10 12 12 11 15 19 19 19 17 13 9 8 8 8 9 10 6 4 5 7 8 9 10 11 12 12 13 12 12 13 15 15 14 14
3 2 2 3 3 5 6 6 7 6 5 5 5 3 3 5 6 4 4 6 6 7 8 7 6 7 9 11 12 11 13 14 12 12 14 13 10 13 19 21 21 17 11 7 10 10 7 10 13 13 13 13 12 13 14 15 16 15 16 18 19 19 17 14 11 10 9 7 7 10 11 7 5 6 7 9 9 9 10 11 12 12 12 13 15 16 15 14
2 2 1 2 3 4 5 5 6 7 7 5 2 1 4 7 8 4 4 4 5 6 6 4 6 9 12 12 10 11 13 13 12 13 14 13 12 14 18 20 20 15 11 11 13 9 6 9 12 12 11 8 9 15 18 17 16 17 16 17 18 19 18 16 13 12 10 8 6 8 12 11 7 7 7 9 9 8 8 10 12 13 13 14 15 16 17 16
3 3 2 2 3 6 9 9 8 8 9 7 4 3 4 6 7 5 3 3 4 4 4 4 8 13 15 12 9 10 12 10 10 12 12 12 13 13 13 16 18 17 14 13 12 8 7 8 11 12 8 4 6 11 16 16 16 17 17 17 17 17 18 16 14 13 12 10 9 7 8 12 9 8 8 9 10 8 6 9 12 14 14 14 14 15 15 17
4 4 4 4 5 9 11 9 6 6 6 5 3 3 3 4 6 4 2 2 3 3 2 4 9 12 13 10 7 6 8 10 10 11 11 12 13 12 11 12 14 17 17 12 10 10 8 7 12 12 7 5 5 5 9 13 15 16 17 17 17 17 17 16 14 14 12 10 11 8 6 9 8 8 9 9 11 12 12 12 13 14 15 16 16 15 14 15
8 8 8 7 6 7 7 6 5 3 2 2 3 3 3 4 6 2 2 1 1 2 1 3 6 7 10 10 7 5 5 6 9 9 11 12 11 10 9 11 13 15 15 11 10 10 7 6 11 10 7 8 7 7 10 12 12 14 16 18 18 16 15 15 13 13 13 11 11 9 5 6 6 10 10 8 11 14 16 16 14 13 14 16 18 16 14 14
11 9 8 6 6 6 6 6 7 5 3 3 1 3 4 4 4 2 2 2 1 2 3 2 3 5 10 12 7 6 8 4 4 4 6 10 11 11 8 10 13 13 12 11 10 10 8 6 8 10 8 8 9 9 9 8 10 12 12 14 18 16 15 15 14 15 15 12 9 8 7 6 6 11 10 10 12 14 14 14 13 14 15 15 15 17 17 16
Wind_Direction
329 328 327 327 327 328 328 326 322 315 306 296 288 287 292 301 304 305 307 309 313 314 316 317 319 321 319 318 315 312 315 312 303 287 263 255 252 242 242 243 237 224 215 229 241 232 207 208 211 204 213 213 215 227 210 203 215 219 223 234 234 235 239 241 244 244 255 243 156 166 183 214 244 216 196 225 226 237 242 218 212 207 169 61 88 135 141 142
328 327 327 326 326 325 323 321 320 317 315 309 299 289 283 286 295 300 302 308 308 311 315 314 318 318 319 316 312 315 316 305 291 279 265 257 253 242 238 239 238 236 221 220 224 223 215 208 203 200 211 213 207 217 214 198 206 221 219 229 233 239 241 241 254 255 253 263 178 154 175 214 242 264 200 224 223 217 226 214 203 202 132 90 104 131 139 146
327 327 327 327 326 326 323 320 316 313 313 312 309 302 293 286 285 288 296 302 300 305 309 311 318 315 317 313 310 319 315 300 284 271 254 236 239 240 239 237 235 227 207 215 220 225 230 222 204 200 213 220 208 209 213 195 197 219 224 233 231 239 246 237 257 274 272 290 262 176 179 218 239 254 230 247 243 213 216 215 196 191 145 119 131 141 149 153
325 324 323 324 324 324 323 322 317 315 312 310 309 306 305 297 286 280 283 293 297 300 302 309 315 313 316 311 312 320 308 292 276 178 110 181 207 222 230 232 229 213 204 224 232 232 237 236 218 206 216 225 211 208 213 199 196 215 220 237 237 233 245 229 224 250 254 272 258 239 225 230 239 246 242 252 251 221 215 212 193 185 159 145 146 150 160 159
323 320 320 320 319 319 319 320 318 316 313 310 307 305 307 304 295 286 275 279 292 296 298 305 308 313 313 307 314 316 296 284 99 99 100 139 140 132 201 215 219 208 208 225 234 237 234 233 229 214 220 228 215 210 213 208 207 222 222 235 246 240 246 243 218 238 247 246 250 249 239 238 245 245 246 250 251 241 215 202 193 183 167 158 151 152 166 166
319 318 317 316 316 315 314 314 315 315 314 311 308 306 306 304 301 295 281 272 282 290 292 296 302 310 308 307 311 299 274 271 83 105 127 127 97 37 58 203 213 200 209 222 225 229 226 223 224 215 219 227 223 217 212 212 210 227 229 225 241 250 252 255 226 211 236 239 237 239 237 245 261 250 243 246 250 263 251 203 191 177 167 158 152 157 169 170
313 313 312 312 311 311 311 310 310 311 312 312 310 307 304 302 300 301 294 276 271 282 285 291 299 302 307 313 303 274 250 267 276 125 170 153 84 12 2 277 211 192 205 216 217 220 219 216 216 217 220 223 228 224 213 215 212 222 238 223 230 242 241 243 230 205 225 240 240 242 246 247 251 248 237 239 241 254 288 193 169 161 158 152 154 163 167 171
304 305 304 306 306 305 306 306 307 308 308 309 309 307 303 301 298 299 299 285 267 270 280 286 293 300 308 314 300 265 241 254 246 132 190 225 332 327 310 242 193 193 204 210 214 216 216 215 216 217 223 223 228 227 215 219 218 217 237 238 227 232 232 229 234 233 233 242 243 240 245 243 242 252 250 248 240 222 212 143 147 150 150 151 158 164 167 172
299 296 295 297 299 300 301 300 301 303 304 305 306 308 305 300 298 297 298 292 269 260 273 278 283 294 299 298 289 275 250 242 212 120 203 277 307 295 288 245 186 194 206 210 214 215 217 216 217 219 228 230 230 230 219 220 222 211 228 243 236 229 231 231 235 238 237 238 238 235 236 237 236 248 254 246 238 201 180 175 162 157 156 157 162 166 171 174
304 301 297 293 292 294 295 295 296 297 299 300 302 304 303 299 298 296 296 295 277 259 263 270 276 286 286 277 265 262 253 160 165 101 358 306 304 286 272 250 198 203 209 211 214 215 218 218 217 222 234 239 238 234 223 221 224 211 221 237 239 232 226 230 233 229 233 230 230 235 231 233 231 229 241 226 203 174 183 182 168 169 168 164 166 171 173 173
308 306 304 301 296 293 292 292 291 291 292 295 298 299 301 299 295 295 293 294 285 262 252 262 269 275 275 268 256 241 138 90 341 313 312 306 296 274 258 244 230 223 217 215 215 215 218 221 220 223 229 240 248 240 227 224 229 232 231 236 235 233 229 229 230 225 230 227 223 232 234 234 228 222 237 203 159 173 191 174 167 178 172 167 169 170 172 171
308 306 305 304 301 297 294 291 288 286 285 288 291 293 296 297 294 293 289 291 290 266 246 251 258 267 272 264 248 243 255 295 301 300 294 292 282 266 257 250 245 240 230 223 218 215 218 222 224 228 222 224 239 237 229 222 227 238 236 239 230 226 232 229 227 224 225 227 214 218 232 231 226 226 219 166 151 180 188 168 170 180 168 167 168 165 171 168
311 308 306 304 302 300 297 294 290 285 282 282 284 287 290 293 292 291 287 288 292 275 246 243 256 264 268 263 254 255 267 282 287 287 283 278 274 264 254 245 242 243 240 234 224 216 217 221 226 232 229 227 229 234 255 219 217 231 224 235 234 221 228 224 222 221 220 226 208 206 225 222 220 220 186 130 172 179 177 170 169 174 165 166 168 167 172 168
313 310 307 306 303 301 299 296 293 287 283 280 279 282 283 287 288 287 285 282 287 278 244 238 257 263 263 264 266 262 261 269 274 274 272 268 263 256 242 233 233 235 235 234 231 221 217 219 226 235 233 236 235 213 240 217 205 224 220 223 236 230 226 211 207 212 214 213 202 205 229 226 213 182 109 77 203 176 169 171 166 173 167 166 172 172 172 170
312 309 307 305 303 302 301 299 296 289 283 278 274 275 277 280 283 285 283 279 284 273 239 234 247 257 268 269 270 266 255 253 259 261 259 254 248 240 228 220 220 225 223 223 227 227 219 213 218 234 223 224 242 233 217 215 200 215 221 218 223 234 236 203 190 202 207 198 195 204 228 230 187 126 119 128 156 143 157 171 170 174 170 171 176 174 173 171
311 307 305 303 302 302 301 300 298 292 285 279 272 270 270 274 279 284 280 275 278 258 228 232 240 245 261 269 267 261 242 237 242 249 243 234 233 230 222 212 207 211 212 209 214 225 215 203 208 228 221 212 229 233 212 213 207 207 218 224 212 219 239 198 176 194 203 196 193 203 231 227 126 117 133 149 155 150 161 173 171 170 172 176 176 174 173 169
311 307 303 300 299 299 299 300 299 295 289 281 273 269 267 270 274 280 278 269 263 239 216 229 251 253 258 273 272 251 229 224 224 230 223 218 221 224 221 206 196 197 200 199 203 212 199 194 206 216 223 215 210 216 216 209 205 203 209 227 217 211 231 199 168 189 200 205 197 202 229 207 125 133 132 147 167 163 164 171 172 176 176 177 175 169 176 181
311 306 302 297 296 296 297 298 298 296 289 280 274 269 265 266 269 273 268 250 235 227 220 232 250 263 247 247 248 243 237 215 208 224 222 213 211 215 217 207 192 186 190 193 196 202 190 192 207 206 211 212 205 209 218 211 204 205 199 217 221 207 221 209 175 185 196 207 202 201 218 177 124 136 137 161 184 171 167 173 178 185 178 173 169 158 183 206
314 307 301 297 293 293 295 296 297 297 290 279 269 263 264 269 268 261 247 225 204 206 217 209 202 219 283 240 222 230 260 260 238 244 229 214 206 209 213 211 196 186 189 186 188 196 189 191 203 208 208 204 205 207 216 221 212 210 201 209 224 206 214 217 187 182 190 201 205 204 213 185 141 147 151 163 191 185 173 179 188 180 173 167 142 94 50 343
320 313 305 297 293 293 295 295 296 296 288 274 262 257 260 256 250 243 228 215 211 218 226 198 186 217 263 279 219 196 245 249 237 236 222 210 200 198 206 207 195 191 196 189 184 188 189 198 203 208 208 201 205 208 216 227 224 218 204 206 223 212 209 215 184 172 184 198 209 210 215 202 170 158 162 165 191 199 181 185 191 173 172 163 122 92 74 69
325 320 312 302 296 293 295 294 295 295 283 264 254 249 240 235 248 275 223 222 221 221 232 223 200 216 243 260 255 232 278 259 235 229 214 201 193 191 196 198 193 191 199 193 182 184 193 206 207 205 207 203 204 209 215 226 238 233 210 205 218 216 210 201 158 164 190 205 211 211 219 214 189 161 165 171 179 196 193 187 187 175 172 159 134 122 107 100
326 322 316 307 299 295 294 293 293 293 278 255 243 237 238 248 271 316 288 259 239 223 230 234 228 230 240 256 266 265 268 257 242 233 205 192 193 192 186 191 197 191 192 193 182 185 199 211 207 202 207 207 202 208 215 219 229 235 220 212 210 213 213 187 153 173 197 209 211 205 217 221 190 152 160 177 174 182 193 180 179 181 169 158 150 138 128 124
326 320 313 306 301 295 293 293 294 290 271 246 236 237 242 252 269 283 264 272 269 234 225 231 234 236 238 250 256 251 245 238 241 232 203 196 198 194 189 189 197 193 189 195 190 189 199 205 204 199 204 209 201 203 212 214 215 225 226 214 208 213 212 177 155 183 197 211 223 206 208 222 189 156 162 178 174 177 191 181 178 183 166 156 152 143 147 141
324 316 309 304 299 294 296 297 290 275 258 244 241 241 242 250 263 268 259 264 268 244 222 226 230 232 233 238 240 238 235 228 237 227 201 201 201 195 198 192 195 197 194 197 195 198 202 195 198 199 201 206 200 197 206 211 205 218 228 220 215 210 199 184 177 186 197 212 230 221 205 212 198 182 177 174 171 169 176 176 172 172 159 150 148 153 159 144
321 313 309 304 297 297 300 294 279 263 252 245 245 244 241 247 252 255 259 266 261 242 221 219 222 230 230 231 231 230 232 225 231 233 203 199 202 194 196 196 199 201 196 196 197 202 204 190 192 198 198 201 201 197 203 207 200 211 225 229 233 212 188 197 190 182 193 205 218 227 213 199 192 194 188 178 175 160 158 169 167 164 158 154 157 161 164 152
324 318 311 304 300 302 297 285 290 290 268 247 250 251 245 242 242 244 245 255 263 238 207 200 202 212 214 220 219 215 233 229 220 232 216 200 204 202 196 193 203 207 196 194 199 205 202 189 191 197 195 196 202 202 198 201 209 209 208 221 243 232 194 193 188 183 200 200 199 212 220 200 185 197 192 183 183 160 156 168 164 166 162 163 171 163 164 165
330 323 313 307 301 296 289 286 304 309 288 262 260 252 237 223 219 212 234 253 259 226 200 188 178 178 186 203 201 194 223 215 196 221 220 200 203 211 209 192 193 209 194 187 201 201 197 192 191 195 194 194 201 202 191 195 214 209 186 202 236 244 199 187 190 196 209 201 193 204 223 225 197 206 193 174 182 185 178 174 164 173 170 170 178 167 170 173
331 324 315 307 293 281 281 287 295 301 293 320 1 292 291 194 193 164 215 251 222 173 187 183 175 170 178 193 191 195 218 188 171 201 205 199 203 209 216 200 193 201 192 193 201 183 193 199 190 188 191 193 197 197 187 191 214 217 183 192 210 226 201 187 197 211 209 204 201 199 215 236 214 206 196 176 186 205 197 187 180 177 178 188 190 180 178 174
330 322 313 300 291 283 274 274 285 295 292 345 38 6 1 193 198 177 223 246 157 112 159 170 174 188 192 187 188 199 221 213 178 178 186 199 208 214 225 204 195 200 193 198 202 181 194 198 181 181 192 195 195 198 189 188 210 220 183 186 188 196 207 204 211 223 213 212 221 203 202 229 226 196 199 191 189 199 197 195 191 178 179 191 191 190 184 169
323 319 313 298 291 287 269 257 270 281 289 54 45 31 53 147 198 199 222 231 166 117 205 163 171 195 193 184 187 195 215 228 185 160 173 193 204 216 232 210 200 203 190 195 208 195 185 179 173 187 205 199 195 199 190 191 205 197 161 185 188 193 210 214 221 233 225 211 221 219 205 216 234 197 192 205 200 196 191 190 194 183 178 183 181 188 186 166
318 316 313 290 279 287 280 264 284 291 323 59 45 55 92 161 226 207 209 234 170 338 322 178 183 197 189 185 189 189 209 226 178 159 173 185 190 201 212 202 197 198 187 192 206 190 169 174 184 198 207 200 195 196 186 193 204 187 168 196 192 191 204 209 215 228 236 215 209 222 212 206 229 217 183 198 205 200 190 181 188 190 182 179 181 185 183 167
314 312 306 279 268 278 281 304 350 333 335 184 121 45 159 197 229 223 248 337 267 305 329 219 201 196 185 188 191 184 202 214 175 165 175 180 183 191 196 189 180 188 187 185 193 180 173 189 194 194 203 200 194 190 181 190 203 193 186 200 192 186 193 200 206 210 228 228 206 218 219 206 224 236 202 193 197 202 201 188 184 185 179 178 184 184 178 166
313 300 293 275 265 263 265 283 305 313 334 190 183 289 239 218 234 236 264 333 345 270 316 309 243 196 181 189 189 183 200 201 174 172 178 180 184 189 198 195 185 191 186 180 188 180 177 192 192 191 197 199 198 192 180 186 199 196 193 200 195 187 188 196 204 202 213 229 214 214 222 216 220 233 215 192 192 204 208 198 185 177 174 177 177 171 173 167
313 286 278 271 258 255 254 255 251 247 263 223 212 251 243 243 267 290 348 19 356 277 289 317 285 199 186 193 184 180 197 191 173 177 176 179 186 187 198 198 191 195 184 180 190 181 178 186 191 193 186 188 201 201 185 184 193 199 202 207 208 200 192 195 204 203 202 213 213 214 223 214 204 233 212 177 179 206 208 204 192 170 166 174 166 158 168 171
309 275 265 260 249 247 245 236 226 229 234 232 244 250 249 251 268 322 27 21 337 319 318 319 283 203 189 193 182 181 198 187 174 182 178 180 187 184 191 194 190 194 186 182 192 185 188 188 183 187 180 182 199 202 190 189 190 196 206 212 216 210 195 193 214 228 226 214 208 213 227 210 190 300 263 157 158 190 204 200 177 146 156 176 167 159 166 170
303 268 255 249 242 235 232 224 210 218 226 234 247 248 255 256 269 331 39 343 311 328 328 311 239 198 187 185 177 182 201 194 175 183 180 181 189 184 189 194 188 193 194 188 190 185 192 185 169 175 181 186 197 201 194 196 189 183 204 212 213 214 209 200 206 245 279 224 205 197 212 210 200 218 209 167 169 180 189 197 162 141 162 181 164 155 162 166
292 261 244 238 235 221 219 212 203 219 231 238 246 250 255 232 223 279 95 226 262 295 321 309 211 197 186 179 172 177 192 190 177 185 180 181 190 183 187 193 188 195 202 195 184 184 192 171 159 172 184 182 192 205 201 206 205 190 198 204 201 215 225 217 200 202 220 219 204 189 196 211 218 202 182 191 198 191 190 201 181 150 161 180 161 157 167 168
287 261 239 227 220 210 216 205 201 221 227 238 250 256 266 244 182 209 226 257 264 269 298 302 216 200 185 173 172 177 184 180 177 184 179 180 188 182 186 191 187 196 204 195 184 189 195 170 160 182 185 171 184 205 203 203 217 219 199 196 203 210 215 217 208 200 204 214 211 196 196 212 224 206 182 192 201 199 195 200 193 165 161 178 170 165 169 165
279 264 235 203 189 184 196 195 206 225 229 245 257 258 271 299 231 172 198 260 289 288 287 299 269 223 203 181 169 174 184 180 177 182 180 184 184 179 186 187 184 196 202 193 183 190 194 171 165 186 182 167 177 201 199 189 210 225 210 201 211 209 206 213 211 202 201 209 213 205 203 213 224 208 188 190 198 201 196 196 198 180 171 179 172 165 168 163
267 261 176 164 169 164 175 195 218 236 236 241 265 294 320 321 311 219 224 255 282 284 279 298 299 274 233 190 168 173 190 180 178 182 179 185 176 173 187 188 179 190 197 190 182 188 193 175 170 180 177 176 181 196 200 186 192 210 210 203 201 191 200 211 210 210 208 205 205 213 216 214 221 212 193 193 200 203 197 193 195 184 174 177 173 166 166 163
271 275 134 154 168 165 180 220 227 234 243 245 267 301 320 323 307 296 277 245 256 260 264 280 282 282 261 202 170 174 186 173 181 185 170 181 176 167 186 186 176 183 191 192 186 187 189 174 176 179 178 188 189 189 198 198 192 194 204 207 197 186 195 204 207 210 215 214 203 210 225 217 214 217 202 196 198 200 197 190 187 181 173 171 170 167 166 165
282 302 97 149 174 179 202 251 243 233 252 272 291 302 313 312 296 300 301 266 262 259 253 263 266 270 262 207 170 175 181 169 183 184 160 172 172 165 178 178 180 186 186 187 183 182 186 177 176 179 179 188 186 183 197 206 199 193 204 212 199 195 204 207 205 201 211 228 217 211 223 213 162 228 206 189 188 190 183 177 181 177 168 165 164 165 166 165
290 321 114 161 189 204 231 263 262 252 263 293 303 303 306 300 287 293 296 281 271 257 246 252 255 265 257 198 168 173 180 172 179 178 163 163 167 177 175 171 182 187 181 184 180 174 192 191 175 173 172 179 182 181 195 210 205 194 206 215 206 199 205 216 219 198 201 223 219 211 217 193 99 22 210 179 176 175 163 169 188 175 158 164 165 163 169 167
315 309 208 181 197 219 249 271 289 290 293 306 308 303 300 292 279 273 270 261 254 254 260 256 244 262 260 200 167 168 175 176 176 172 163 159 169 178 168 170 188 188 180 190 176 161 194 198 177 174 171 176 184 181 188 205 208 197 202 212 213 204 199 212 233 212 200 221 221 217 216 184 148 137 164 197 190 180 169 172 182 172 159 164 164 163 170 165
307 289 264 206 204 223 253 276 300 300 299 305 301 296 294 285 269 263 261 257 251 255 270 276 254 255 247 198 169 164 168 174 172 167 161 158 169 172 165 177 194 186 180 187 168 161 199 202 183 182 181 181 185 183 184 193 198 200 201 204 211 210 199 204 226 220 206 216 222 226 220 135 152 161 169 200 195 177 169 168 166 161 160 163 163 165 166 159
306 286 287 249 220 233 254 270 285 283 290 301 297 297 294 274 273 273 263 255 243 241 256 274 261 240 226 200 177 162 162 169 168 166 163 157 162 169 168 182 192 182 171 162 155 171 205 205 191 190 193 191 183 184 189 188 190 199 201 199 205 212 206 202 213 223 218 209 216 227 213 138 159 184 174 184 188 171 164 165 157 153 163 169 164 160 156 155
305 302 306 309 272 249 250 257 263 260 276 306 313 321 293 275 292 289 232 236 244 238 247 257 237 207 191 188 182 166 163 170 170 169 163 154 156 166 169 181 189 173 143 137 168 187 206 197 196 201 200 195 189 186 187 190 195 199 201 201 203 206 208 207 209 217 218 212 213 218 212 189 168 185 180 175 180 175 166 163 155 154 166 167 157 150 145 148
310 307 291 303 285 270 268 262 260 261 268 274 272 292 286 284 293 278 196 219 252 246 241 231 216 202 183 174 171 163 164 167 168 169 163 153 157 163 167 180 183 159 142 169 182 192 206 187 196 213 200 190 209 199 185 187 197 200 202 204 202 201 204 208 210 212 214 221 229 213 210 213 189 165 176 175 173 178 167 155 149 149 156 160 157 154 149 154
319 314 310 299 281 280 282 280 277 272 271 267 241 231 262 283 288 274 237 224 210 222 254 228 202 201 188 172 158 160 164 163 163 166 159 153 160 162 163 177 178 163 167 185 182 194 219 184 189 211 189 163 248 213 181 184 195 199 201 203 203 202 203 206 205 210 218 229 244 239 218 221 209 161 162 167 157 159 159 151 152 153 159 167 169 163 157 162
337 318 317 312 290 279 279 280 273 255 252 253 238 223 221 256 276 265 236 235 172 153 274 224 189 195 199 184 157 145 148 148 153 155 149 152 160 163 165 170 172 169 177 187 180 191 219 186 180 200 184 166 238 227 185 192 196 198 201 203 205 203 203 204 200 206 220 223 230 244 233 222 205 130 132 152 150 159 169 166 162 160 163 169 172 170 163 162
332 314 314 311 295 289 292 298 302 292 254 225 221 223 208 226 249 236 99 63 138 126 298 224 181 191 211 191 142 67 50 119 134 136 146 157 158 157 164 165 166 170 176 184 180 183 214 202 178 193 197 181 193 204 205 210 206 205 205 202 202 202 201 205 201 202 214 216 217 225 228 216 169 118 125 153 159 166 172 169 167 166 165 169 171 170 163 158
336 321 316 309 287 296 310 316 334 352 332 311 258 202 186 164 175 170 68 34 12 26 4 279 201 186 193 181 139 37 352 3 51 83 144 161 155 152 160 160 165 171 172 177 181 179 199 206 179 193 205 185 184 193 201 216 216 211 209 204 203 204 201 204 205 203 208 215 217 214 225 232 165 139 154 173 172 171 169 169 174 168 168 175 172 165 163 161